When you browse on this site, cookies collect data to enhance your experience and personalize the content and advertising you see.
Visit our Privacy Policy to learn more. By continuing to use the site, you agree to this use of cookies and data.

Météo par heure à Namibe

Ce jour, 20 Septembre, Dimanche

Heure Température Précipitation Vent Pression Humidité
00:00 +18°C° 0 mm 1 m/s 759 mmHg 91%
01:00 +18°C° 0 mm 1 m/s 758 mmHg 91%
02:00 +18°C° 0 mm 1 m/s 758 mmHg 91%
03:00 +18°C° 0 mm 1 m/s 758 mmHg 90%
04:00 +19°C° 0 mm 1 m/s 757 mmHg 89%
05:00 +19°C° 0 mm 1 m/s 758 mmHg 89%
06:00 +19°C° 0 mm 1 m/s 758 mmHg 88%
07:00 +17°C° 0 mm 0 m/s 758 mmHg 87%
08:00 +21°C° 0 mm 1 m/s 758 mmHg 77%
09:00 +24°C° 0 mm 2 m/s 758 mmHg 68%
10:00 +26°C° 0 mm 2 m/s 758 mmHg 58%
11:00 +26°C° 0 mm 3 m/s 757 mmHg 58%
12:00 +26°C° 0 mm 4 m/s 757 mmHg 57%
13:00 +27°C° 0 mm 5 m/s 756 mmHg 57%
14:00 +26°C° 0 mm 5 m/s 755 mmHg 61%
15:00 +25°C° 0 mm 5 m/s 755 mmHg 64%
16:00 +23°C° 0 mm 5 m/s 755 mmHg 68%
17:00 +22°C° 0 mm 4 m/s 755 mmHg 74%
18:00 +20°C° 0 mm 3 m/s 756 mmHg 81%
19:00 +19°C° 0 mm 2 m/s 757 mmHg 87%
20:00 +19°C° 0 mm 2 m/s 757 mmHg 89%
21:00 +18°C° 0 mm 2 m/s 758 mmHg 90%
22:00 +18°C° 0 mm 2 m/s 758 mmHg 92%
23:00 +18°C° 0 mm 2 m/s 758 mmHg 90%

Demain, 21 Septembre, Lundi

Heure Température Précipitation Vent Pression Humidité
00:00 +18°C° 0 mm 2 m/s 757 mmHg 88%
01:00 +18°C° 0 mm 3 m/s 757 mmHg 87%
02:00 +18°C° 0 mm 3 m/s 757 mmHg 86%
03:00 +19°C° 0 mm 3 m/s 757 mmHg 85%
04:00 +19°C° 0 mm 4 m/s 756 mmHg 84%
05:00 +19°C° 0 mm 4 m/s 757 mmHg 85%
06:00 +19°C° 0 mm 4 m/s 758 mmHg 86%
07:00 +20°C° 0 mm 4 m/s 758 mmHg 86%
08:00 +21°C° 0 mm 5 m/s 759 mmHg 82%
09:00 +22°C° 0 mm 5 m/s 759 mmHg 77%
10:00 +23°C° 0 mm 5 m/s 759 mmHg 73%
11:00 +25°C° 0 mm 5 m/s 758 mmHg 71%
12:00 +26°C° 0 mm 6 m/s 758 mmHg 68%
13:00 +26°C° 0 mm 6 m/s 757 mmHg 66%
14:00 +24°C° 0 mm 6 m/s 757 mmHg 70%
15:00 +23°C° 0 mm 6 m/s 757 mmHg 74%
16:00 +23°C° 0 mm 6 m/s 757 mmHg 79%
17:00 +22°C° 0 mm 5 m/s 757 mmHg 81%
18:00 +21°C° 0 mm 3 m/s 758 mmHg 83%
19:00 +21°C° 0 mm 2 m/s 759 mmHg 85%
20:00 +21°C° 0 mm 2 m/s 759 mmHg 85%
21:00 +22°C° 0 mm 1 m/s 760 mmHg 86%
22:00 +22°C° 0 mm 1 m/s 760 mmHg 86%
23:00 +21°C° 0 mm 1 m/s 760 mmHg 87%

Après-demain, 22 Septembre, Mardi

Heure Température Précipitation Vent Pression Humidité
00:00 +21°C° 0 mm 1 m/s 760 mmHg 88%
01:00 +19°C° 0 mm 0 m/s 759 mmHg 89%
02:00 +19°C° 0 mm 0 m/s 759 mmHg 91%
03:00 +18°C° 0 mm 0 m/s 759 mmHg 92%
04:00 +18°C° 0 mm 0 m/s 759 mmHg 94%
05:00 +19°C° 0 mm 0 m/s 759 mmHg 92%
06:00 +19°C° 0 mm 0 m/s 760 mmHg 90%
07:00 +20°C° 0 mm 0 m/s 761 mmHg 88%
08:00 +23°C° 0 mm 1 m/s 761 mmHg 83%
09:00 +24°C° 0 mm 2 m/s 761 mmHg 78%
10:00 +25°C° 0 mm 2 m/s 761 mmHg 73%
11:00 +26°C° 0 mm 3 m/s 760 mmHg 70%
12:00 +26°C° 0 mm 4 m/s 759 mmHg 67%
13:00 +27°C° 0 mm 4 m/s 759 mmHg 64%
14:00 +26°C° 0 mm 4 m/s 758 mmHg 67%
15:00 +25°C° 0 mm 4 m/s 758 mmHg 70%
16:00 +25°C° 0 mm 4 m/s 758 mmHg 73%
17:00 +23°C° 0 mm 4 m/s 758 mmHg 78%
18:00 +22°C° 0 mm 4 m/s 759 mmHg 82%
19:00 +21°C° 0 mm 4 m/s 760 mmHg 86%
20:00 +21°C° 0 mm 3 m/s 760 mmHg 86%
21:00 +21°C° 0 mm 3 m/s 761 mmHg 85%
22:00 +21°C° 0 mm 2 m/s 761 mmHg 84%
23:00 +21°C° 0 mm 2 m/s 761 mmHg 83%

23 Septembre, Mercredi

Heure Température Précipitation Vent Pression Humidité
00:00 +21°C° 0 mm 2 m/s 761 mmHg 83%
01:00 +21°C° 0 mm 2 m/s 760 mmHg 82%
02:00 +21°C° 0 mm 2 m/s 760 mmHg 81%
03:00 +22°C° 0 mm 1 m/s 760 mmHg 80%
04:00 +22°C° 0 mm 1 m/s 760 mmHg 80%
05:00 +22°C° 0 mm 1 m/s 760 mmHg 80%
06:00 +22°C° 0 mm 1 m/s 760 mmHg 80%
07:00 +21°C° 0 mm 2 m/s 760 mmHg 80%
08:00 +24°C° 0 mm 2 m/s 760 mmHg 72%
09:00 +26°C° 0 mm 2 m/s 760 mmHg 64%
10:00 +28°C° 0 mm 2 m/s 760 mmHg 56%
11:00 +28°C° 0 mm 3 m/s 759 mmHg 55%
12:00 +29°C° 0 mm 4 m/s 758 mmHg 54%
13:00 +29°C° 0 mm 5 m/s 758 mmHg 53%
14:00 +28°C° 0 mm 5 m/s 757 mmHg 56%
15:00 +27°C° 0 mm 5 m/s 757 mmHg 59%
16:00 +26°C° 0 mm 5 m/s 757 mmHg 62%
17:00 +23°C° 0 mm 5 m/s 758 mmHg 71%
18:00 +22°C° 0 mm 4 m/s 758 mmHg 80%
19:00 +20°C° 0 mm 4 m/s 759 mmHg 90%
20:00 +20°C° 0 mm 3 m/s 760 mmHg 89%
21:00 +20°C° 0 mm 2 m/s 760 mmHg 89%
22:00 +20°C° 0 mm 1 m/s 761 mmHg 89%
23:00 +20°C° 0 mm 1 m/s 761 mmHg 88%

24 Septembre, Jeudi

Heure Température Précipitation Vent Pression Humidité
00:00 +21°C° 0 mm 1 m/s 760 mmHg 87%
01:00 +21°C° 0 mm 1 m/s 760 mmHg 86%
02:00 +20°C° 0 mm 1 m/s 760 mmHg 87%
03:00 +18°C° 0 mm 0 m/s 760 mmHg 89%
04:00 +18°C° 0 mm 0 m/s 760 mmHg 90%
05:00 +20°C° 0 mm 1 m/s 760 mmHg 87%
06:00 +21°C° 0 mm 1 m/s 760 mmHg 83%
07:00 +21°C° 0 mm 2 m/s 760 mmHg 80%
08:00 +24°C° 0 mm 2 m/s 760 mmHg 71%
09:00 +26°C° 0 mm 3 m/s 760 mmHg 63%
10:00 +28°C° 0 mm 3 m/s 759 mmHg 54%
11:00 +28°C° 0 mm 4 m/s 759 mmHg 55%
12:00 +28°C° 0 mm 4 m/s 758 mmHg 55%
13:00 +28°C° 0 mm 5 m/s 757 mmHg 56%
14:00 +27°C° 0 mm 5 m/s 757 mmHg 60%
15:00 +26°C° 0 mm 5 m/s 757 mmHg 64%
16:00 +25°C° 0 mm 5 m/s 757 mmHg 68%
17:00 +22°C° 0 mm 5 m/s 758 mmHg 74%
18:00 +21°C° 0 mm 5 m/s 759 mmHg 80%
19:00 +20°C° 0 mm 4 m/s 760 mmHg 86%
20:00 +20°C° 0 mm 4 m/s 760 mmHg 85%
21:00 +20°C° 0 mm 3 m/s 760 mmHg 83%
22:00 +20°C° 0 mm 3 m/s 760 mmHg 82%
23:00 +19°C° 0 mm 2 m/s 760 mmHg 84%

25 Septembre, Vendredi

Heure Température Précipitation Vent Pression Humidité
00:00 +19°C° 0 mm 2 m/s 760 mmHg 86%
01:00 +18°C° 0 mm 2 m/s 759 mmHg 88%
02:00 +18°C° 0 mm 2 m/s 759 mmHg 90%
03:00 +18°C° 0 mm 2 m/s 759 mmHg 92%
04:00 +17°C° 0 mm 2 m/s 759 mmHg 94%
05:00 +17°C° 0 mm 2 m/s 759 mmHg 92%
06:00 +18°C° 0 mm 2 m/s 759 mmHg 89%
07:00 +18°C° 0 mm 2 m/s 760 mmHg 87%
08:00 +20°C° 0 mm 2 m/s 760 mmHg 79%
09:00 +23°C° 0 mm 2 m/s 760 mmHg 70%
10:00 +25°C° 0 mm 3 m/s 760 mmHg 61%
11:00 +26°C° 0 mm 4 m/s 759 mmHg 60%
12:00 +26°C° 0 mm 4 m/s 758 mmHg 58%
13:00 +27°C° 0 mm 5 m/s 757 mmHg 57%
14:00 +26°C° 0 mm 5 m/s 757 mmHg 61%
15:00 +25°C° 0 mm 5 m/s 757 mmHg 64%
16:00 +23°C° 0 mm 5 m/s 757 mmHg 68%
17:00 +21°C° 0 mm 5 m/s 757 mmHg 74%
18:00 +20°C° 0 mm 4 m/s 758 mmHg 79%
19:00 +19°C° 0 mm 4 m/s 758 mmHg 85%
20:00 +19°C° 0 mm 3 m/s 759 mmHg 85%
21:00 +18°C° 0 mm 2 m/s 759 mmHg 86%
22:00 +19°C° 0 mm 1 m/s 759 mmHg 86%
23:00 +17°C° 0 mm 2 m/s 759 mmHg 88%
Voir plus